[[{"header":{"parameterUnit":"m.s-1","parameterCategory":1,"la1":30.2991,"la2":30.254,"lo1":-89.0895,"lo2":-89.0444,"dy":0.0017,"dx":0.0017,"nx":28,"ny":28,"refTime":"2025-08-10T03:00:00:Z","depth":0,"parameterNumber":2,"parameterNumberName":"U-component_of_WINDS"},"data":[0,0,0,0,0,0,0,0,0,0,0,0,0,0,0,0,0,0,0,0,0,0,0,0,0,0,0,0,0,0,0,0,0,0,0,0,0,0,0,0,0,0,0,0,0,0,0,0,0,0,0,0,0,0,0,0,0,0,-1.3211,-1.321,0,-1.3138,-1.3137,-1.3136,-1.304,-1.3039,-1.3037,-1.3036,-1.2962,-1.2961,-1.2961,0,0,0,0,0,0,0,0,0,0,0,0,0,-1.3271,-1.3271,-1.3211,-1.321,-1.3209,-1.3138,-1.3137,-1.3136,-1.3041,-1.3039,-1.3037,-1.3035,-1.2962,-1.2962,-1.2961,0,0,0,0,0,0,0,0,0,0,0,0,0,-1.3227,-1.3271,-1.3211,-1.3153,-1.3147,-1.3138,-1.3137,-1.3136,-1.3041,-1.3039,-1.3036,-1.3034,-1.2962,-1.2962,-1.2961,-1.3003,0,0,-1.2959,-1.2958,0,0,0,0,0,0,0,0,-1.3229,-1.3224,-1.3163,-1.3157,-1.315,-1.3096,-1.3131,-1.3091,-1.3042,-1.3081,-1.3036,-1.3033,-1.3009,-1.3004,-1.2995,-1.3,-1.2997,-1.2958,-1.2958,-1.2958,-1.2957,0,0,0,0,0,0,0,-1.3232,-1.3227,-1.3182,-1.3162,-1.3154,-1.3132,-1.3123,-1.3123,-1.3059,-1.3078,-1.3071,-1.3063,-1.3005,-1.2996,-1.2993,-1.2996,-1.2958,-1.2958,-1.2957,-1.2957,-1.3035,-1.3037,0,0,0,0,0,0,-1.3244,-1.323,-1.3185,-1.318,-1.3185,-1.3133,-1.3122,-1.3116,-1.3059,-1.3048,-1.3065,-1.3059,-1.2999,-1.2994,-1.299,-1.3038,-1.2958,-1.2957,-1.2957,-1.3032,-1.3035,-1.3038,0,0,0,0,0,0,-1.3246,-1.3241,-1.3187,-1.3203,-1.3195,-1.3134,-1.3127,-1.3116,-1.3107,-1.3049,-1.3038,-1.3068,-1.2997,-1.2991,-1.3001,-1.3034,-1.2957,-1.2956,-1.3029,-1.3033,-1.3037,-1.3133,0,0,0,0,0,0,-1.3248,-1.3242,-1.3257,-1.3204,-1.3194,-1.32,-1.3129,-1.3116,-1.3106,-1.3097,-1.3049,-1.3039,-1.2994,-1.3003,-1.3001,-1.3031,-1.2955,-1.3026,-1.3031,-1.3035,-1.3126,-1.3139,-1.315,0,0,0,0,0,-1.325,-1.3286,-1.3258,-1.3253,-1.3211,-1.3202,-1.3196,-1.3143,-1.3109,-1.3124,-1.3087,-1.304,-1.3031,-1.3005,-1.3001,-1.3032,-1.3024,-1.3029,-1.3035,-1.3121,-1.3137,-1.315,0,0,0,0,0,0,-1.3344,-1.3278,-1.3246,-1.3266,-1.324,-1.3185,-1.3202,-1.3162,-1.3145,-1.3138,-1.3074,-1.3064,-1.3083,-1.3058,-1.3031,-1.3072,-1.302,-1.3026,-1.3087,-1.3101,-1.3113,-1.3119,-1.2955,0,0,0,0,0,-1.3367,-1.3364,-1.3307,-1.333,-1.3319,-1.3263,-1.3257,-1.3219,-1.319,-1.3179,-1.3143,-1.3117,-1.3108,-1.3103,-1.3092,-1.3123,-1.3112,-1.3142,-1.3154,-1.3165,-1.317,-1.3187,-1.32,-1.3056,-1.3056,-1.3056,0,0,-1.3414,-1.3378,-1.338,-1.3348,-1.3323,-1.3323,-1.3255,-1.3256,-1.3256,-1.3179,-1.3187,-1.316,-1.3127,-1.3149,-1.3156,-1.3129,-1.3208,-1.3172,-1.318,-1.318,-1.3194,-1.3208,-1.322,-1.306,-1.306,-1.3059,0,0,-1.35,-1.3472,-1.3489,-1.3466,-1.343,-1.3394,-1.3398,-1.335,-1.333,-1.3336,-1.328,-1.3279,-1.3264,-1.3244,-1.3231,-1.3313,-1.327,-1.3311,-1.3374,-1.3391,-1.3403,-1.3412,-1.3443,-1.3455,-1.3317,-1.3317,-1.3317,0,-1.3563,-1.3559,-1.3503,-1.3509,-1.3498,-1.3429,-1.3447,-1.3428,-1.339,-1.3385,-1.3355,-1.3337,-1.331,-1.3326,-1.3347,-1.3339,-1.3343,-1.3316,-1.3405,-1.3415,-1.3423,-1.3452,-1.3463,-1.3322,-1.3322,-1.3321,-1.3321,0,-1.364,-1.3639,-1.3657,-1.3623,-1.3614,-1.3626,-1.3573,-1.357,-1.3534,-1.3502,-1.3511,-1.3476,-1.3458,-1.3459,-1.3423,-1.3472,-1.3456,-1.3417,-1.3364,-1.3443,-1.3469,-1.3479,-1.333,-1.3328,-1.3327,-1.3325,0,0,-1.3781,-1.3718,-1.3726,-1.371,-1.3667,-1.3665,-1.3675,-1.3657,-1.3657,-1.3635,-1.3643,-1.3633,-1.3598,-1.3584,-1.3546,-1.3561,-1.363,-1.3519,-1.3518,-1.3542,-1.3684,-1.3714,-1.3728,-1.3602,-1.3604,-1.3605,-1.3687,0,-1.386,-1.3873,-1.3824,-1.3849,-1.3849,-1.3785,-1.3794,-1.3769,-1.3739,-1.3735,-1.3702,-1.3697,-1.3649,-1.3641,-1.3653,-1.3619,-1.3658,-1.3613,-1.361,-1.361,-1.362,-1.3741,-1.3772,-1.3851,-1.3697,-1.3698,-1.3699,0,-1.3953,-1.3936,-1.3962,-1.3919,-1.3917,-1.3926,-1.3907,-1.3903,-1.3875,-1.3852,-1.3839,-1.3795,-1.3803,-1.3753,-1.3765,-1.3736,-1.3732,-1.3715,-1.3717,-1.3715,-1.366,-1.3743,-1.3875,-1.3887,-1.3715,-1.3713,-1.3712,0,-1.4055,-1.4039,-1.4052,-1.4041,-1.3991,-1.4,-1.398,-1.3949,-1.3942,-1.3926,-1.3921,-1.3906,-1.3898,-1.3889,-1.3843,-1.381,-1.3861,-1.3807,-1.3844,-1.3846,-1.3857,-1.3857,-1.3992,-1.3854,-1.3854,-1.3854,-1.3854,0,-1.4148,-1.4167,-1.4098,-1.4107,-1.4127,-1.4071,-1.4093,-1.4066,-1.404,-1.4044,-1.3988,-1.3993,-1.3931,-1.393,-1.3895,-1.3911,-1.3908,-1.3891,-1.3881,-1.3896,-1.3899,-1.3893,-1.3887,-1.3857,-1.3856,-1.3856,-1.3855,0,-1.4265,-1.422,-1.4231,-1.4184,-1.4172,-1.4189,-1.4149,-1.4156,-1.4124,-1.413,-1.4128,-1.4077,-1.4073,-1.4027,-1.4012,-1.3988,-1.4019,-1.3999,-1.4029,-1.4023,-1.4063,-1.4061,-1.4199,-1.4215,-1.4067,-1.4069,-1.407,0,-1.4328,-1.4341,-1.4296,-1.4294,-1.4276,-1.4274,-1.4267,-1.4214,-1.421,-1.418,-1.4191,-1.4183,-1.4173,-1.417,-1.4132,-1.4122,-1.4101,-1.4151,-1.4099,-1.4115,-1.4103,-1.4104,-1.4105,-1.4161,-1.4163,-1.4165,-1.4166,0,-1.4444,-1.4422,-1.4413,-1.4399,-1.4392,-1.4378,-1.436,-1.4362,-1.4304,-1.4302,-1.4297,-1.429,-1.4276,-1.4269,-1.4252,-1.4232,-1.4191,-1.4183,-1.4191,-1.4207,-1.4224,-1.4217,-1.406,-1.418,-1.4178,-1.4177,-1.4177,-1.4176,-1.4536,-1.4546,-1.4516,-1.451,-1.4491,-1.4477,-1.4481,-1.445,-1.4445,-1.443,-1.4399,-1.4399,-1.4373,-1.4346,-1.4331,-1.4332,-1.4306,-1.4318,-1.4321,-1.4325,-1.4334,-1.4224,-1.4328,-1.4328,-1.4327,-1.4327,-1.4327,0,-1.4651,-1.4629,-1.4624,-1.4601,-1.4597,-1.4558,-1.4537,-1.4537,-1.4538,-1.4516,-1.4509,-1.4505,-1.4498,-1.4461,-1.4451,-1.4459,-1.444,-1.4458,-1.4457,-1.4454,-1.4356,-1.4351,-1.4474,-1.4474,-1.4474,-1.4474,-1.4474,-1.4474,-1.471,-1.4725,-1.4699,-1.4705,-1.4683,-1.4683,-1.4675,-1.4662,-1.4645,-1.4643,-1.4637,-1.4614,-1.4587,-1.4575,-1.4568,-1.4557,-1.4557,-1.4582,-1.4566,-1.4475,-1.4461,-1.4447,-1.4442,-1.4582,-1.4582,-1.4663,-1.4664,-1.4665]},{"header":{"parameterUnit":"m.s-1","parameterCategory":1,"la1":30.2991,"la2":30.254,"lo1":-89.0895,"lo2":-89.0444,"dy":0.0017,"dx":0.0017,"nx":28,"ny":28,"refTime":"2025-08-10T03:00:00:Z","depth":0,"parameterNumber":3,"parameterNumberName":"V-component_of_WINDS"},"data":[0,0,0,0,0,0,0,0,0,0,0,0,0,0,0,0,0,0,0,0,0,0,0,0,0,0,0,0,0,0,0,0,0,0,0,0,0,0,0,0,0,0,0,0,0,0,0,0,0,0,0,0,0,0,0,0,0,0,2.9745,2.9745,0,2.9751,2.9751,2.9751,2.9793,2.9794,2.9795,2.9796,2.9799,2.9798,2.9797,0,0,0,0,0,0,0,0,0,0,0,0,0,2.9767,2.9766,2.9745,2.9745,2.9745,2.975,2.9751,2.9751,2.9793,2.9794,2.9795,2.9797,2.9799,2.9798,2.9797,0,0,0,0,0,0,0,0,0,0,0,0,0,2.9763,2.9766,2.9745,2.9767,2.9769,2.975,2.9751,2.9751,2.9793,2.9794,2.9796,2.9797,2.9799,2.9798,2.9797,2.9756,0,0,2.9792,2.9792,0,0,0,0,0,0,0,0,2.9763,2.9762,2.9763,2.9765,2.9767,2.9773,2.9759,2.9752,2.9792,2.9783,2.9796,2.9798,2.9788,2.9788,2.9786,2.9757,2.9757,2.9792,2.9791,2.9791,2.979,0,0,0,0,0,0,0,2.9764,2.9762,2.9747,2.9763,2.9766,2.9775,2.9776,2.9758,2.9777,2.9784,2.9787,2.9788,2.979,2.9787,2.9786,2.9757,2.9792,2.9791,2.979,2.979,2.9693,2.9691,0,0,0,0,0,0,2.9761,2.9762,2.9747,2.9747,2.9769,2.9773,2.9775,2.9769,2.9777,2.978,2.9786,2.979,2.9788,2.9787,2.9786,2.9738,2.9791,2.9789,2.9789,2.9694,2.9692,2.969,0,0,0,0,0,0,2.9762,2.9759,2.9747,2.9756,2.9755,2.9771,2.9765,2.9769,2.9766,2.9779,2.9782,2.978,2.979,2.9788,2.9763,2.9738,2.9789,2.9788,2.9696,2.9694,2.9691,2.9642,0,0,0,0,0,0,2.9762,2.9759,2.9745,2.9755,2.9754,2.9724,2.9764,2.9768,2.9764,2.9768,2.9774,2.9776,2.9791,2.9765,2.9762,2.9737,2.9787,2.9699,2.9695,2.9692,2.9645,2.9638,2.9631,0,0,0,0,0,2.9763,2.9731,2.9744,2.9742,2.9737,2.9723,2.9722,2.9741,2.9762,2.9746,2.9755,2.9776,2.9742,2.9762,2.9759,2.9734,2.97,2.9696,2.9692,2.9649,2.9639,2.9631,0,0,0,0,0,0,2.9716,2.9732,2.9748,2.9718,2.9719,2.973,2.9712,2.973,2.9724,2.9729,2.9751,2.9752,2.9723,2.9726,2.9748,2.9694,2.9725,2.972,2.9693,2.9684,2.9676,2.9675,2.9785,0,0,0,0,0,2.9703,2.9692,2.9706,2.9678,2.9678,2.9695,2.969,2.9704,2.9705,2.9705,2.9712,2.9711,2.97,2.9693,2.9684,2.9647,2.9647,2.9628,2.9621,2.9615,2.9609,2.9588,2.9578,2.9677,2.9677,2.9677,0,0,2.9675,2.9682,2.9673,2.9669,2.9672,2.9658,2.9695,2.9679,2.9668,2.9703,2.9679,2.9684,2.9685,2.9653,2.9639,2.9655,2.9582,2.961,2.9605,2.9603,2.9583,2.9573,2.9565,2.9675,2.9675,2.9676,0,0,2.9615,2.9621,2.9598,2.9599,2.9603,2.9614,2.9609,2.9617,2.9622,2.9599,2.9624,2.9611,2.9592,2.9591,2.9588,2.9528,2.9546,2.9524,2.9485,2.9464,2.9456,2.9449,2.9425,2.9416,2.952,2.952,2.9519,0,2.9579,2.9561,2.9583,2.9565,2.9562,2.9594,2.9569,2.9569,2.9569,2.9565,2.9583,2.9559,2.9562,2.9529,2.9515,2.9512,2.9504,2.9523,2.9456,2.9449,2.9443,2.942,2.9411,2.9517,2.9517,2.9517,2.9518,0,2.9515,2.9501,2.9482,2.9481,2.9476,2.9455,2.9473,2.9464,2.9479,2.9488,2.9463,2.9468,2.9459,2.9453,2.9467,2.9422,2.9431,2.9452,2.9482,2.943,2.9409,2.94,2.9513,2.9514,2.9514,2.9515,0,0,2.9425,2.9438,2.943,2.9429,2.9435,2.9424,2.9404,2.9397,2.9388,2.9387,2.9368,2.9352,2.9371,2.9368,2.9382,2.9363,2.9312,2.9386,2.9387,2.937,2.9259,2.9241,2.9231,2.9325,2.9324,2.9323,2.9258,0,2.9366,2.9333,2.9352,2.9315,2.9302,2.9332,2.9314,2.9314,2.9322,2.9311,2.9319,2.9306,2.9334,2.9331,2.9315,2.9322,2.929,2.9327,2.9306,2.9305,2.9302,2.922,2.9202,2.914,2.925,2.9249,2.9248,0,2.9293,2.9289,2.925,2.9258,2.9253,2.9236,2.923,2.922,2.9221,2.9227,2.9223,2.9242,2.922,2.9252,2.9222,2.9247,2.924,2.9242,2.924,2.9236,2.9271,2.9212,2.9122,2.9111,2.9236,2.9237,2.9237,0,2.9227,2.9213,2.9188,2.9187,2.9195,2.9183,2.9185,2.9188,2.9182,2.9176,2.9172,2.9164,2.9158,2.9151,2.9166,2.9188,2.9132,2.9166,2.9134,2.9134,2.9119,2.9119,2.9024,2.9119,2.9119,2.9119,2.9119,0,2.9158,2.9133,2.9158,2.9142,2.9115,2.9137,2.9108,2.9114,2.9116,2.91,2.9126,2.9111,2.9133,2.9119,2.9131,2.9102,2.91,2.9103,2.9106,2.9099,2.9098,2.9092,2.9096,2.9117,2.9117,2.9118,2.9118,0,2.9079,2.9096,2.907,2.9081,2.9083,2.9061,2.907,2.9054,2.9064,2.9044,2.9041,2.9055,2.904,2.9055,2.9041,2.9048,2.9009,2.902,2.9009,2.901,2.8977,2.8979,2.8872,2.8858,2.8965,2.8964,2.8963,0,2.9033,2.9014,2.9023,2.9015,2.9016,2.9003,2.8997,2.9018,2.901,2.9009,2.8993,2.8981,2.8972,2.8946,2.8954,2.8943,2.8951,2.8915,2.8949,2.8942,2.8947,2.8947,2.8944,2.8906,2.8905,2.8904,2.8903,0,2.8947,2.8956,2.8947,2.894,2.8932,2.8928,2.8925,2.8917,2.8938,2.8928,2.8913,2.8906,2.8892,2.8878,2.8869,2.887,2.8889,2.8893,2.8884,2.8876,2.8869,2.8869,2.8986,2.8894,2.8895,2.8896,2.8896,2.8897,2.8881,2.8865,2.8868,2.8857,2.8857,2.8854,2.8839,2.8848,2.8836,2.8827,2.884,2.8821,2.8821,2.8811,2.881,2.8794,2.8809,2.8798,2.8794,2.879,2.8784,2.8874,2.8793,2.8793,2.8793,2.8794,2.8794,0,2.8794,2.8798,2.8787,2.8783,2.8773,2.8795,2.8792,2.8782,2.8765,2.8765,2.8755,2.8737,2.8723,2.8731,2.8719,2.8704,2.8712,2.87,2.87,2.8699,2.8773,2.878,2.8693,2.8693,2.8693,2.8693,2.8693,2.8693,2.8748,2.8721,2.873,2.8703,2.8707,2.869,2.8686,2.8682,2.8681,2.866,2.865,2.8655,2.8657,2.8645,2.8632,2.8635,2.8628,2.8611,2.8616,2.8684,2.8694,2.8703,2.871,2.861,2.861,2.8544,2.8543,2.8543]}]]